Location: Pilipovskiye Korichintsy
(49.1833°N, 27.4667°E)
Time: 22:16:20
(UTC+00:00)

Okean 3 - Pass Details

Date: 14 July 2020
Orbit: 576 x 601 km, 82.5° (Epoch: 10 August)

Event Time Altitude Azimuth Distance (km) Brightness Sun altitude
Rises 00:12:55 0° 348° (NNW) 2,806 7.8 -14.6°
Reaches altitude 10° 00:15:07 10° 347° (NNW) 1,903 6.8 -14.4°
Maximum altitude 00:19:19 76° 263° (W) 604 3.4 -14.1°
Enters shadow 00:22:20 18° 179° (S) 1,436 4.9 -13.8°
